Tracking 19795 objects as of 20-Jul-2019
HD Live streaming from Space Station
objects crossing your sky now

CZ-4 DEB

Track CZ-4 DEB now!
10-day predictions


NORAD ID: 26181
Int'l Code: 1999-057BT
Perigee: 690.8 km
Apogee: 711.3 km
Inclination: 98.6 °
Period: 98.6 minutes
Semi major axis: 7072 km
RCS: 0.027 m2 (small)
Launch date: October 14, 1999
Source: People's Republic of China (PRC)
Launch site: Taiyaun Space Center, China (TSC)

Note: This is SATELLITE DEBRIS
aabbcc
Your satellite tracking list
Your tracking list is empty




NASA's NSSDC Master Catalog

Two Line Element Set (TLE):
1 26181U 99057BT  19200.78816917  .00000035  00000-0  18036-4 0  9997
2 26181  98.5970 274.4090 0014530 343.7580 137.7186 14.59774706 28864
Source of the keplerian elements: AFSPC